SB KEPS @ AMSAT $ORB11153.O Orbital Elements 11153.OSCAR
HR AMSAT ORBITAL ELEMENTS FOR OSCAR SATELLITES FROM WA5QGD FORT WORTH,TX June 2, 2011 Send Subscribe/unsubscribe to KEPS at http://www.amsat.org/mailman/listinfo/keps BID: ORB11153.O TO ALL RADIO AMATEURS BT
Satellite: AO-07 Catalog number: 07530 Epoch time: 11153.63138788 Element set: 93 Inclination: 101.3911 deg RA of node: 160.7465 deg Eccentricity: 0.0011729 Arg of perigee: 309.3328 deg Mean anomaly: 050.6702 deg Mean motion: 12.53582544 rev/day Decay rate: -2.7e-07 rev/day^2 Epoch rev: 67236 Checksum: 286
Satellite: FO-29 Catalog number: 24278 Epoch time: 11152.96884108 Element set: 0598 Inclination: 098.5405 deg RA of node: 299.1454 deg Eccentricity: 0.0349763 Arg of perigee: 296.7563 deg Mean anomaly: 059.8187 deg Mean motion: 13.52961795 rev/day Decay rate: -6.0e-08 rev/day^2 Epoch rev: 73040 Checksum: 364
Satellite: SO-33 Catalog number: 25509 Epoch time: 11153.76809957 Element set: 980 Inclination: 031.4329 deg RA of node: 325.8681 deg Eccentricity: 0.0353006 Arg of perigee: 115.5923 deg Mean anomaly: 248.1610 deg Mean motion: 14.28408775 rev/day Decay rate: 5.10e-06 rev/day^2 Epoch rev: 65821 Checksum: 310
Satellite: RS-22 Catalog number: 27939 Epoch time: 11153.93446165 Element set: 315 Inclination: 097.8476 deg RA of node: 008.6133 deg Eccentricity: 0.0014368 Arg of perigee: 034.5079 deg Mean anomaly: 325.7065 deg Mean motion: 14.63589641 rev/day Decay rate: 3.43e-06 rev/day^2 Epoch rev: 41025 Checksum: 311
Satellite: VO-52 Catalog number: 28650 Epoch time: 11152.70170881 Element set: 0810 Inclination: 097.6417 deg RA of node: 196.5244 deg Eccentricity: 0.0026140 Arg of perigee: 210.4663 deg Mean anomaly: 149.5015 deg Mean motion: 14.82069412 rev/day Decay rate: 1.020e-05 rev/day^2 Epoch rev: 32845 Checksum: 275
Satellite: SO-67 Catalog number: 35870 Epoch time: 11153.93974453 Element set: 896 Inclination: 097.2821 deg RA of node: 197.7736 deg Eccentricity: 0.0003913 Arg of perigee: 078.3698 deg Mean anomaly: 014.9286 deg Mean motion: 15.20745717 rev/day Decay rate: 1.928e-05 rev/day^2 Epoch rev: 9477 Checksum: 365
Satellite: HO-68 Catalog number: 36122 Epoch time: 11153.87317568 Element set: 432 Inclination: 100.4155 deg RA of node: 214.8998 deg Eccentricity: 0.0007124 Arg of perigee: 258.3391 deg Mean anomaly: 101.6917 deg Mean motion: 13.16286502 rev/day Decay rate: -4.5e-07 rev/day^2 Epoch rev: 7035 Checksum: 290
/EX SB KEPS @ AMSAT $ORB11153.D Orbital Elements 11153.MICROS
HR AMSAT ORBITAL ELEMENTS FOR THE MICROSATS FROM WA5QGD FORT WORTH,TX June 2, 2011 Send Subscribe/unsubscribe to KEPS at http://www.amsat.org/mailman/listinfo/keps BID: ORB11153.D TO ALL RADIO AMATEURS BT
Satellite: UO-11 Catalog number: 14781 Epoch time: 11152.92683223 Element set: 0576 Inclination: 098.0064 deg RA of node: 209.6843 deg Eccentricity: 0.0008994 Arg of perigee: 181.0405 deg Mean anomaly: 179.0791 deg Mean motion: 14.79975227 rev/day Decay rate: 4.62e-06 rev/day^2 Epoch rev: 46353 Checksum: 324
Satellite: AO-16 Catalog number: 20439 Epoch time: 11153.90699819 Element set: 200 Inclination: 098.3834 deg RA of node: 104.0028 deg Eccentricity: 0.0010251 Arg of perigee: 202.2883 deg Mean anomaly: 157.7854 deg Mean motion: 14.31922014 rev/day Decay rate: 7.6e-07 rev/day^2 Epoch rev: 11557 Checksum: 280
Satellite: LO-19 Catalog number: 20442 Epoch time: 11152.94074042 Element set: 0129 Inclination: 098.3441 deg RA of node: 107.4807 deg Eccentricity: 0.0011423 Arg of perigee: 198.1105 deg Mean anomaly: 161.9670 deg Mean motion: 14.32147637 rev/day Decay rate: 5.5e-07 rev/day^2 Epoch rev: 11561 Checksum: 269
Satellite: AO-27 Catalog number: 22825 Epoch time: 11152.88992893 Element set: 0837 Inclination: 098.5316 deg RA of node: 097.6591 deg Eccentricity: 0.0007998 Arg of perigee: 326.5634 deg Mean anomaly: 033.5035 deg Mean motion: 14.29348716 rev/day Decay rate: 1.42e-06 rev/day^2 Epoch rev: 92200 Checksum: 337
Satellite: IO-26 Catalog number: 22826 Epoch time: 11153.94201449 Element set: 575 Inclination: 098.5253 deg RA of node: 099.1691 deg Eccentricity: 0.0008471 Arg of perigee: 318.0829 deg Mean anomaly: 041.9702 deg Mean motion: 14.29610850 rev/day Decay rate: 7.3e-07 rev/day^2 Epoch rev: 92227 Checksum: 309
Satellite: GO-32 Catalog number: 25397 Epoch time: 11152.51557729 Element set: 0495 Inclination: 098.3235 deg RA of node: 145.9158 deg Eccentricity: 0.0001238 Arg of perigee: 010.1377 deg Mean anomaly: 349.9822 deg Mean motion: 14.23209936 rev/day Decay rate: 1.11e-06 rev/day^2 Epoch rev: 66973 Checksum: 316
Satellite: NO-44 Catalog number: 26931 Epoch time: 11153.90971738 Element set: 766 Inclination: 067.0546 deg RA of node: 020.3183 deg Eccentricity: 0.0006791 Arg of perigee: 258.4617 deg Mean anomaly: 101.5681 deg Mean motion: 14.29662139 rev/day Decay rate: 1.64e-06 rev/day^2 Epoch rev: 50488 Checksum: 315
Satellite: SO-50 Catalog number: 27607 Epoch time: 11152.77674333 Element set: 0480 Inclination: 064.5604 deg RA of node: 014.5043 deg Eccentricity: 0.0070861 Arg of perigee: 324.5819 deg Mean anomaly: 035.0547 deg Mean motion: 14.71748453 rev/day Decay rate: 1.18e-06 rev/day^2 Epoch rev: 45382 Checksum: 295
Satellite: CO-55 Catalog number: 27844 Epoch time: 11152.61363286 Element set: 122 Inclination: 098.7053 deg RA of node: 161.5408 deg Eccentricity: 0.0008831 Arg of perigee: 243.5953 deg Mean anomaly: 116.4323 deg Mean motion: 14.20811813 rev/day Decay rate: 1.34e-06 rev/day^2 Epoch rev: 41070 Checksum: 272
Satellite: CO-57 Catalog number: 27848 Epoch time: 11152.55462028 Element set: 0072 Inclination: 098.7113 deg RA of node: 160.6663 deg Eccentricity: 0.0008687 Arg of perigee: 248.5539 deg Mean anomaly: 111.4727 deg Mean motion: 14.20591039 rev/day Decay rate: 9.1e-07 rev/day^2 Epoch rev: 41064 Checksum: 307
Satellite: AO-51 Catalog number: 28375 Epoch time: 11152.90183394 Element set: 0986 Inclination: 098.0970 deg RA of node: 132.1528 deg Eccentricity: 0.0084420 Arg of perigee: 115.8177 deg Mean anomaly: 245.1750 deg Mean motion: 14.40757991 rev/day Decay rate: 6.5e-07 rev/day^2 Epoch rev: 36386 Checksum: 323
Satellite: CP3 Catalog number: 31129 Epoch time: 11152.64932503 Element set: 0885 Inclination: 097.8992 deg RA of node: 177.7601 deg Eccentricity: 0.0101010 Arg of perigee: 228.7474 deg Mean anomaly: 130.4985 deg Mean motion: 14.52483984 rev/day Decay rate: 2.18e-06 rev/day^2 Epoch rev: 21858 Checksum: 314
Satellite: CO-65 Catalog number: 32785 Epoch time: 11152.61678803 Element set: 0006 Inclination: 097.8502 deg RA of node: 216.8068 deg Eccentricity: 0.0013852 Arg of perigee: 224.0333 deg Mean anomaly: 135.9787 deg Mean motion: 14.82001307 rev/day Decay rate: 1.023e-05 rev/day^2 Epoch rev: 16723 Checksum: 289
Satellite: KKS-1 Catalog number: 33493 Epoch time: 11153.91132011 Element set: 638 Inclination: 098.1226 deg RA of node: 282.3161 deg Eccentricity: 0.0021178 Arg of perigee: 087.8825 deg Mean anomaly: 272.4805 deg Mean motion: 14.81698438 rev/day Decay rate: 1.400e-05 rev/day^2 Epoch rev: 12740 Checksum: 285
Satellite: SOHLA-1 Catalog number: 33496 Epoch time: 11152.93518356 Element set: 0440 Inclination: 098.0778 deg RA of node: 262.9210 deg Eccentricity: 0.0006828 Arg of perigee: 163.3553 deg Mean anomaly: 196.7876 deg Mean motion: 14.69617791 rev/day Decay rate: 1.70e-06 rev/day^2 Epoch rev: 12624 Checksum: 323
Satellite: TISAT-1 Catalog number: 36799 Epoch time: 11153.87686584 Element set: 913 Inclination: 098.1029 deg RA of node: 221.9846 deg Eccentricity: 0.0014511 Arg of perigee: 328.1627 deg Mean anomaly: 031.8706 deg Mean motion: 14.80556021 rev/day Decay rate: 8.83e-06 rev/day^2 Epoch rev: 4819 Checksum: 321
Satellite: STUDSAT Catalog number: 36801 Epoch time: 11153.75063456 Element set: 192 Inclination: 098.1057 deg RA of node: 221.7181 deg Eccentricity: 0.0012633 Arg of perigee: 316.3822 deg Mean anomaly: 043.6389 deg Mean motion: 14.80613378 rev/day Decay rate: 2.545e-05 rev/day^2 Epoch rev: 4816 Checksum: 286
Satellite: RAX Catalog number: 37223 Epoch time: 11152.36844328 Element set: 0173 Inclination: 071.9713 deg RA of node: 073.6151 deg Eccentricity: 0.0021634 Arg of perigee: 311.5989 deg Mean anomaly: 048.3343 deg Mean motion: 14.77415682 rev/day Decay rate: 6.35e-06 rev/day^2 Epoch rev: 02854 Checksum: 291
Satellite: OOREOS Catalog number: 37224 Epoch time: 11076.42207246 Element set: 0109 Inclination: 071.9712 deg RA of node: 241.3960 deg Eccentricity: 0.0017800 Arg of perigee: 096.5373 deg Mean anomaly: 263.7815 deg Mean motion: 14.76929834 rev/day Decay rate: 8.68e-06 rev/day^2 Epoch rev: 01732 Checksum: 300
Satellite: FO-69 Catalog number: 37227 Epoch time: 11153.35663741 Element set: 0042 Inclination: 071.9700 deg RA of node: 071.9679 deg Eccentricity: 0.0018069 Arg of perigee: 305.1996 deg Mean anomaly: 054.7473 deg Mean motion: 14.76589887 rev/day Decay rate: 3.27e-06 rev/day^2 Epoch rev: 00713 Checksum: 334
Satellite: NANOSALD Catalog number: 37361 Epoch time: 11146.82501643 Element set: 0208 Inclination: 071.9526 deg RA of node: 082.7196 deg Eccentricity: 0.0020972 Arg of perigee: 209.8190 deg Mean anomaly: 150.1642 deg Mean motion: 14.94739815 rev/day Decay rate: 9.0820e-04 rev/day^2 Epoch rev: 01892 Checksum: 300
Satellite: FO-70 Catalog number: 37380 Epoch time: 11153.36795125 Element set: 0178 Inclination: 071.9740 deg RA of node: 072.0322 deg Eccentricity: 0.0018776 Arg of perigee: 302.7299 deg Mean anomaly: 057.2062 deg Mean motion: 14.76356596 rev/day Decay rate: 3.20e-06 rev/day^2 Epoch rev: 02867 Checksum: 310
/EX SB KEPS @ AMSAT $ORB11153.W Orbital Elements 11153.WEATHER
HR AMSAT ORBITAL ELEMENTS FOR WEATHER SATELLITES FROM WA5QGD FORT WORTH,TX June 2, 2011 Send Subscribe/unsubscribe to KEPS at http://www.amsat.org/mailman/listinfo/keps BID: ORB11153.W TO ALL RADIO AMATEURS BT
